This demonstration page uses our WeatherBlox Daily Observations layout. Learn more.

Hourly Observations for October 23, 2018

Temp ( °F °C ) Dew Point ( °F °C ) Humidity (%) Winds ( mph kmh ) Pressure ( in mb ) Visibility ( mi km ) Precip ( " mm )
12:15 am 00:15 Clear 42 5.7 30 -1 62 62 NE 7 11 30.3 1026 10 16.09344 0 0
12:35 am 00:35 Clear 40 4.7 30 -1 67 67 NE 8 13 30.33 1027 10 16.09344 0 0
12:55 am 00:55 Clear 40 4.6 30 -1 67 67 NE 7 11 30.33 1027 10 16.09344 0 0
1:15 am 01:15 Clear 39 3.8 31 -0.8 72 72 NE 8 13 30.33 1027 10 16.09344 0 0
1:35 am 01:35 Clear 39 3.8 31 -0.7 73 73 NE 8 13 30.33 1027 10 16.09344 0 0
1:55 am 01:55 Clear 39 4.1 30 -1 70 70 NE 5 7 30.33 1027 10 16.09344 0 0
2:15 am 02:15 Clear 39 4.1 30 -1.2 69 69 NNE 5 7 30.33 1027 10 16.09344 0 0
2:35 am 02:35 Clear 38 3.5 30 -1.1 72 72 NE 6 9 30.33 1027 10 16.09344 0 0
2:55 am 02:55 Clear 38 3.6 30 -1 72 72 NE 7 11 30.33 1027 10 16.09344 0 0
3:15 am 03:15 Clear 37 2.8 30 -1 76 76 NNE 7 11 30.33 1027 10 16.09344 0 0
3:35 am 03:35 Clear 38 3.1 31 -0.7 76 76 NNE 6 9 30.36 1028 10 16.09344 0 0
3:55 am 03:55 Clear 38 3.2 31 -0.6 76 76 NE 6 9 30.36 1028 10 16.09344 0 0
4:15 am 04:15 Clear 38 3.5 31 -0.5 75 75 NE 6 9 30.36 1028 10 16.09344 0 0
4:35 am 04:35 Clear 38 3.2 31 -0.5 77 77 NE 5 7 30.36 1028 10 16.09344 0 0
4:55 am 04:55 Clear 37 2.8 31 -0.7 78 78 Calm 30.36 1028 10 16.09344 0 0
5:15 am 05:15 Clear 38 3.3 31 -0.5 76 76 N 3 6 30.36 1028 10 16.09344 0 0
5:35 am 05:35 Clear 35 1.4 31 -0.5 87 87 Calm 30.39 1029 10 16.09344 0 0
5:55 am 05:55 Clear 35 1.7 31 -0.5 86 86 Calm 30.39 1029 10 16.09344 0 0
6:15 am 06:15 Clear 33 0.8 31 -0.6 90 90 N 5 7 30.39 1029 10 16.09344 0 0
6:35 am 06:35 Clear 35 1.4 31 -0.5 87 87 NNE 5 7 30.39 1029 10 16.09344 0 0
6:55 am 06:55 Clear 34 1.3 31 -0.5 88 88 NNE 6 9 30.39 1029 10 16.09344 0 0
7:15 am 07:15 Clear 34 1.1 31 -0.7 88 88 NNE 6 9 30.39 1029 10 16.09344 0 0
7:35 am 07:35 Clear 35 1.7 31 -0.5 86 86 Calm 30.39 1029 10 16.09344 0 0
7:55 am 07:55 Clear 36 2.2 31 -0.5 83 83 NNE 5 7 30.42 1030 10 16.09344 0 0
8:15 am 08:15 Sunny 35 1.9 31 -0.5 84 84 NNE 5 7 30.42 1030 10 16.09344 0 0
8:35 am 08:35 Sunny 36 2.1 32 -0.1 86 86 NE 6 9 30.42 1030 10 16.09344 0 0
8:55 am 08:55 Sunny 38 3.2 33 0.5 83 83 NE 5 7 30.39 1029 10 16.09344 0 0
9:15 am 09:15 Sunny 41 5.1 33 0.7 74 74 ENE 6 9 30.42 1030 10 16.09344 0 0
9:35 am 09:35 Sunny 43 6.1 34 1.1 71 71 E 7 11 30.39 1029 10 16.09344 0 0
9:55 am 09:55 Sunny 45 7.3 35 1.4 66 66 E 9 15 30.39 1029 10 16.09344 0 0
10:15 am 10:15 Sunny 48 9 35 1.5 60 60 E 13 20 30.39 1029 10 16.09344 0 0
10:35 am 10:35 Sunny 50 10.1 34 1.3 55 55 ESE 14 22 30.36 1028 10 16.09344 0 0
10:55 am 10:55 Sunny 52 11.2 34 1.2 50 50 ESE 16 26 30.36 1028 10 16.09344 0 0
11:15 am 11:15 Sunny 54 12.1 34 1 47 47 ESE 14 22 30.36 1028 10 16.09344 0 0
11:35 am 11:35 Sunny 56 13.1 33 0.6 43 43 E 16 26 30.33 1027 10 16.09344 0 0
11:55 am 11:55 Sunny 57 14.1 33 0.5 40 40 E 15 24 30.33 1027 10 16.09344 0 0
12:15 pm 12:15 Sunny 58 14.5 33 0.7 39 39 ESE 15 24 30.33 1027 10 16.09344 0 0
12:35 pm 12:35 Sunny 59 15.2 33 0.7 38 38 ESE 15 24 30.3 1026 10 16.09344 0 0
12:55 pm 12:55 Sunny 60 15.8 33 0.8 36 36 ESE 15 24 30.27 1025 10 16.09344 0 0
1:15 pm 13:15 Sunny 61 16 33 0.8 36 36 ESE 15 24 30.27 1025 10 16.09344 0 0
1:35 pm 13:35 Sunny 62 16.5 34 1.3 36 36 ESE 15 24 30.24 1024 10 16.09344 0 0
1:55 pm 13:55 Sunny 62 16.9 36 2 37 37 E 15 24 30.24 1024 10 16.09344 0 0
2:15 pm 14:15 Sunny 62 16.8 37 2.6 39 39 ESE 15 24 30.24 1024 10 16.09344 0 0
2:35 pm 14:35 Sunny 63 17.2 37 3 39 39 ESE 14 22 30.24 1024 10 16.09344 0 0
2:55 pm 14:55 Sunny 63 17.4 38 3.2 39 39 ESE 13 20 30.24 1024 10 16.09344 0 0
3:15 pm 15:15 Sunny 63 17.4 38 3.1 39 39 ESE 15 24 30.21 1023 10 16.09344 0 0
3:35 pm 15:35 Sunny 64 17.7 38 3.6 39 39 ESE 17 28 30.21 1023 10 16.09344 0 0
3:55 pm 15:55 Sunny 64 17.6 38 3.2 38 38 ESE 14 22 30.21 1023 10 16.09344 0 0
4:15 pm 16:15 Sunny 64 17.5 38 3.5 40 40 ESE 13 20 30.21 1023 10 16.09344 0 0
4:35 pm 16:35 Sunny 64 17.5 38 3.6 40 40 ESE 14 22 30.21 1023 10 16.09344 0 0
4:55 pm 16:55 Sunny 62 16.7 38 3.5 42 42 SE 13 20 30.18 1022 10 16.09344 0 0
5:15 pm 17:15 Sunny 63 17.1 38 3.6 41 41 SE 15 24 30.18 1022 10 16.09344 0 0
5:35 pm 17:35 Sunny 63 17 38 3.6 41 41 SE 14 22 30.18 1022 10 16.09344 0 0
5:55 pm 17:55 Sunny 61 16.1 39 3.7 44 44 SE 12 19 30.18 1022 10 16.09344 0 0
6:15 pm 18:15 Sunny 59 15.1 39 4 48 48 SE 10 17 30.18 1022 10 16.09344 0 0
6:35 pm 18:35 Sunny 56 13.6 38 3.5 51 51 SE 9 15 30.21 1023 10 16.09344 0 0
6:55 pm 18:55 Clear 52 11.2 38 3.3 59 59 ESE 7 11 30.24 1024 10 16.09344 0 0
7:15 pm 19:15 Clear 48 8.8 37 3 67 67 ESE 7 11 30.24 1024 10 16.09344 0 0
7:35 pm 19:35 Clear 48 8.9 37 3 67 67 ESE 7 11 30.24 1024 7 11.265408 0 0
7:55 pm 19:55 Clear 48 8.9 37 2.8 66 66 SE 8 13 30.24 1024 10 16.09344 0 0
8:15 pm 20:15 Clear 46 7.6 36 2.4 70 70 ESE 8 13 30.27 1025 10 16.09344 0 0
8:35 pm 20:35 Clear 46 7.6 37 3 73 73 ESE 8 13 30.27 1025 10 16.09344 0 0
8:55 pm 20:55 Clear 47 8.1 37 3 71 71 ESE 9 15 30.24 1024 10 16.09344 0 0
9:15 pm 21:15 Clear 46 8 37 3 71 71 ESE 8 13 30.24 1024 10 16.09344 0 0
9:35 pm 21:35 Clear 45 7.2 37 2.7 73 73 ESE 9 15 30.27 1025 10 16.09344 0 0
9:55 pm 21:55 Clear 46 7.5 37 2.6 71 71 ESE 8 13 30.27 1025 10 16.09344 0 0
10:15 pm 22:15 Clear 46 7.8 37 2.6 70 70 ESE 8 13 30.27 1025 10 16.09344 0 0
10:35 pm 22:35 Clear 47 8.2 37 2.5 68 68 ESE 9 15 30.24 1024 10 16.09344 0 0
10:55 pm 22:55 Clear 47 8.6 36 2.3 65 65 SE 10 17 30.24 1024 10 16.09344 0 0
11:15 pm 23:15 Clear 47 8.6 36 2.2 64 64 ESE 9 15 30.24 1024 10 16.09344 0 0
11:35 pm 23:35 Clear 47 8.6 36 2.2 64 64 SE 9 15 30.24 1024 10 16.09344 0 0
11:55 pm 23:55 Clear 47 8.5 36 2.2 65 65 SE 8 13 30.24 1024 10 16.09344 0 0

Powered by AerisWeather